sat.trackr.live / text

‹ back to catalog

ONEWEB-0196

NORAD 48218 · 2021-031J

PAYLOAD ACTIVE UNKNOWN

§ Identity

Operator
Country
UK
Launch date
2021-04-25
Launch site
VOSTO
Launch vehicle
Mass (kg)
RCS (m²)

Purposes: comms

External: N2YO · Heavens-Above · Gunter

§ Orbital elements

Epoch: 2026-05-25T03:40:49.787328Z

Period
109.55 min
Inclination
87.8941°
Eccentricity
0.0001748
Mean motion
13.14502013 rev/d
Perigee alt
1,204.5 km
Apogee alt
1,207.1 km
Semi-major
7,583.9 km
B*
8.6165e-5
RAAN
294.3004°
Arg perigee
102.6578°
Mean anomaly
257.4747°
Rev number
24,520

§ Raw data

ONEWEB-01961 48218U 21031J   26145.15335402  .00000045  00000+0  86165-4 0  99992 48218  87.8941 294.3004 0001748 102.6578 257.4747 13.14502013245202

JSON: /api/v1/satellites/48218 · /tle

For live sub-satellite position, see the globe view (requires WebGL).

§ Visibility from observer

Set your observer location to see the next 7 days of passes ≥ 10°. The values pass through the URL so the page stays shareable.

No JS? Fill the form by hand. The geolocation button needs JavaScript.